Zurück zum Katalog

STARLINK-36190

AktivKommunikationVLEO
NORAD 67029·PAYLOAD·🇺🇸 United States

Gestartet Dec 10, 2025 von Vandenberg Space Force Base

Loading…

Nächste Überflüge (nächste 24 Stunden)

TLE

AktuellSource: CelesTrak SupGP

Epoche: Sep 15, 2026, 04:12 UTC

1 67029C 25293AC  26258.17548611  .00041776  00000+0  35005-2 0  2588
2 67029  70.0020 336.8707 0003418 265.6876 200.8175 14.98314089    16

Verfolge STARLINK-36190 in Echtzeit mit AllMySat

Download on the App Store